| time (UTC) | temp F | wind direction | speed knots | gust knots | rain 1hr in | rain 24hr in | rain mn in | humidity % | barometer mb |
| 20260507073928 | 45 | 176 | 0.9 | 1.7 | 0.00 | 0.00 | 0.00 | 29 | 1013.4 |
| 20260507072928 | 45 | 176 | 0.9 | 3.5 | 0.00 | 0.00 | 0.00 | 29 | 1013.4 |
| 20260507071928 | 45 | 0 | 0.0 | 3.5 | 0.00 | 0.00 | 0.00 | 29 | 1013.4 |
| 20260507070928 | 45 | 182 | 2.6 | 4.3 | 0.00 | 0.00 | 0.00 | 30 | 1013.3 |
| 20260507065928 | 45 | 0 | 0.0 | 2.6 | 0.00 | 0.00 | 0.00 | 30 | 1013.4 |
| 20260507064933 | 45 | 140 | 0.9 | 2.6 | 0.00 | 0.00 | 0.00 | 30 | 1013.4 |
| 20260507063928 | 45 | 0 | 0.0 | 1.7 | 0.00 | 0.00 | 0.00 | 29 | 1013.4 |
| 20260507063022 | 45 | 0 | 0.0 | 3.5 | 0.00 | 0.00 | 0.00 | 29 | 1013.4 |
| 20260507062928 | 45 | 0 | 0.0 | 3.5 | 0.00 | 0.00 | 0.00 | 29 | 1013.4 |
| 20260507061929 | 46 | 140 | 1.7 | 3.5 | 0.00 | 0.00 | 0.00 | 28 | 1013.4 |
| 20260507060930 | 46 | 140 | 1.7 | 3.5 | 0.00 | 0.00 | 0.00 | 28 | 1013.4 |
| 20260507055929 | 46 | 0 | 0.0 | 1.7 | 0.00 | 0.00 | 0.00 | 28 | 1013.4 |
| 20260507054928 | 46 | 140 | 0.9 | 3.5 | 0.00 | 0.00 | 0.00 | 28 | 1013.4 |
| 20260507053928 | 46 | 126 | 1.7 | 2.6 | 0.00 | 0.00 | 0.00 | 28 | 1013.4 |
| 20260507052928 | 46 | 0 | 0.0 | 3.5 | 0.00 | 0.00 | 0.00 | 28 | 1013.4 |
| 20260507052052 | 47 | 122 | 1.7 | 5.2 | 0.00 | 0.00 | 0.00 | 27 | 1013.3 |
| 20260507051928 | 47 | 122 | 1.7 | 5.2 | 0.00 | 0.00 | 0.00 | 27 | 1013.3 |
| 20260507050927 | 47 | 122 | 2.6 | 4.3 | 0.00 | 0.00 | 0.00 | 28 | 1013.3 |
| 20260507045929 | 47 | 121 | 2.6 | 6.1 | 0.00 | 0.00 | 0.00 | 27 | 1013.2 |
| 20260507044928 | 47 | 115 | 3.5 | 6.1 | 0.00 | 0.00 | 0.00 | 27 | 1013.2 |
| 20260507043928 | 47 | 92 | 2.6 | 7.0 | 0.00 | 0.00 | 0.00 | 28 | 1013.1 |
| 20260507042928 | 47 | 83 | 3.5 | 6.1 | 0.00 | 0.00 | 0.00 | 28 | 1013.1 |
| 20260507042034 | 47 | 82 | 3.5 | 6.1 | 0.00 | 0.00 | 0.00 | 28 | 1013.0 |
| 20260507041928 | 47 | 82 | 3.5 | 6.1 | 0.00 | 0.00 | 0.00 | 28 | 1013.0 |
| 20260507040928 | 46 | 86 | 3.5 | 6.1 | 0.00 | 0.00 | 0.00 | 29 | 1012.9 |
| 20260507035927 | 46 | 62 | 2.6 | 4.3 | 0.00 | 0.00 | 0.00 | 29 | 1012.8 |
| 20260507034928 | 46 | 62 | 2.6 | 4.3 | 0.00 | 0.00 | 0.00 | 29 | 1012.7 |
| 20260507034044 | 46 | 68 | 2.6 | 4.3 | 0.00 | 0.00 | 0.00 | 29 | 1012.6 |
| 20260507033928 | 46 | 68 | 2.6 | 4.3 | 0.00 | 0.00 | 0.00 | 29 | 1012.6 |
| 20260507032927 | 45 | 65 | 1.7 | 3.5 | 0.00 | 0.00 | 0.00 | 30 | 1012.6 |
| 20260507031927 | 45 | 63 | 2.6 | 4.3 | 0.00 | 0.00 | 0.00 | 31 | 1012.5 |
| 20260507030936 | 44 | 354 | 0.9 | 2.6 | 0.00 | 0.00 | 0.00 | 32 | 1012.3 |
| 20260507025927 | 43 | 343 | 0.9 | 3.5 | 0.00 | 0.00 | 0.00 | 34 | 1012.2 |
| 20260507025259 | 43 | 315 | 2.6 | 7.8 | 0.00 | 0.00 | 0.00 | 34 | 1012.1 |
| 20260507024927 | 43 | 315 | 2.6 | 7.8 | 0.00 | 0.00 | 0.00 | 34 | 1012.1 |
| 20260507024256 | 43 | 326 | 0.9 | 8.7 | 0.00 | 0.00 | 0.00 | 35 | 1012.1 |
| 20260507023927 | 43 | 326 | 0.9 | 8.7 | 0.00 | 0.00 | 0.00 | 35 | 1012.1 |
| 20260507022927 | 44 | 303 | 5.2 | 9.6 | 0.00 | 0.00 | 0.00 | 36 | 1012.0 |
| 20260507021928 | 44 | 293 | 7.0 | 9.6 | 0.00 | 0.00 | 0.00 | 35 | 1012.0 |
| 20260507020928 | 44 | 303 | 5.2 | 7.8 | 0.00 | 0.00 | 0.00 | 35 | 1012.0 |
| 20260507015928 | 45 | 306 | 5.2 | 9.6 | 0.00 | 0.00 | 0.00 | 34 | 1011.9 |
| 20260507014928 | 46 | 305 | 4.3 | 9.6 | 0.00 | 0.00 | 0.00 | 34 | 1011.9 |
| 20260507013927 | 46 | 304 | 4.3 | 9.6 | 0.00 | 0.00 | 0.00 | 33 | 1011.8 |
| 20260507012927 | 47 | 300 | 6.1 | 8.7 | 0.00 | 0.00 | 0.00 | 33 | 1011.8 |
| 20260507011927 | 47 | 304 | 5.2 | 8.7 | 0.00 | 0.00 | 0.00 | 31 | 1011.8 |
| 20260507010928 | 48 | 295 | 5.2 | 7.8 | 0.00 | 0.00 | 0.00 | 31 | 1011.8 |
| 20260507005927 | 49 | 306 | 4.3 | 10.4 | 0.00 | 0.00 | 0.00 | 32 | 1011.8 |
| 20260507004927 | 49 | 303 | 2.6 | 11.3 | 0.00 | 0.00 | 0.00 | 32 | 1011.7 |
| 20260507003927 | 49 | 300 | 5.2 | 10.4 | 0.00 | 0.00 | 0.00 | 31 | 1011.6 |
| 20260507002927 | 50 | 311 | 3.5 | 7.8 | 0.00 | 0.00 | 0.00 | 30 | 1011.5 |
| 20260507001927 | 50 | 272 | 2.6 | 6.1 | 0.00 | 0.00 | 0.00 | 30 | 1011.6 |
| 20260507000929 | 50 | 299 | 6.1 | 10.4 | 0.00 | 0.00 | 0.00 | 30 | 1011.5 |
| 20260506235928 | 50 | 308 | 2.6 | 10.4 | 0.00 | 0.00 | 0.00 | 29 | 1011.5 |
| 20260506234928 | 49 | 277 | 6.1 | 10.4 | 0.00 | 0.00 | 0.00 | 31 | 1011.5 |
| 20260506233928 | 50 | 267 | 4.3 | 9.6 | 0.00 | 0.00 | 0.00 | 29 | 1011.5 |
| 20260506232928 | 50 | 342 | 0.9 | 7.0 | 0.00 | 0.00 | 0.00 | 29 | 1011.3 |
| 20260506231928 | 50 | 316 | 2.6 | 9.6 | 0.00 | 0.00 | 0.00 | 30 | 1011.4 |
| 20260506230928 | 50 | 324 | 1.7 | 13.9 | 0.00 | 0.00 | 0.00 | 30 | 1011.4 |
| 20260506225928 | 49 | 269 | 7.8 | 14.8 | 0.00 | 0.00 | 0.00 | 30 | 1011.5 |
| 20260506224930 | 51 | 343 | 1.7 | 10.4 | 0.00 | 0.00 | 0.00 | 27 | 1011.5 |
| 20260506224251 | 50 | 338 | 3.5 | 8.7 | 0.00 | 0.00 | 0.00 | 28 | 1011.5 |
| 20260506223928 | 50 | 338 | 3.5 | 8.7 | 0.00 | 0.00 | 0.00 | 28 | 1011.5 |
| 20260506222928 | 50 | 351 | 1.7 | 7.8 | 0.00 | 0.00 | 0.00 | 30 | 1011.5 |
| 20260506221928 | 49 | 337 | 1.7 | 13.0 | 0.00 | 0.00 | 0.00 | 29 | 1011.6 |
| 20260506221318 | 49 | 302 | 6.1 | 13.0 | 0.00 | 0.00 | 0.00 | 30 | 1011.6 |
| 20260506220927 | 49 | 302 | 6.1 | 13.0 | 0.00 | 0.00 | 0.00 | 30 | 1011.6 |
| 20260506215927 | 50 | 304 | 1.7 | 10.4 | 0.00 | 0.00 | 0.00 | 28 | 1011.5 |
| 20260506214929 | 50 | 336 | 1.7 | 10.4 | 0.00 | 0.00 | 0.00 | 32 | 1011.6 |
| 20260506214327 | 49 | 301 | 7.0 | 14.8 | 0.00 | 0.00 | 0.00 | 32 | 1011.7 |
| 20260506213927 | 49 | 301 | 7.0 | 14.8 | 0.00 | 0.00 | 0.00 | 32 | 1011.7 |
| 20260506212927 | 49 | 273 | 5.2 | 12.2 | 0.00 | 0.00 | 0.00 | 34 | 1011.6 |
| 20260506211428 | 50 | 317 | 2.6 | 10.4 | 0.00 | 0.00 | 0.00 | 33 | 1011.7 |
| 20260506210650 | 49 | 335 | 2.6 | 7.8 | 0.00 | 0.00 | 0.00 | 34 | 1011.6 |
| 20260506210428 | 49 | 335 | 2.6 | 7.8 | 0.00 | 0.00 | 0.00 | 34 | 1011.6 |
| 20260506205428 | 48 | 279 | 4.3 | 9.6 | 0.00 | 0.00 | 0.00 | 33 | 1011.8 |
| 20260506204428 | 48 | 283 | 1.7 | 7.0 | 0.00 | 0.00 | 0.00 | 33 | 1011.8 |
| 20260506203720 | 46 | 322 | 1.7 | 8.7 | 0.00 | 0.00 | 0.00 | 34 | 1011.7 |
| 20260506203429 | 46 | 322 | 1.7 | 8.7 | 0.00 | 0.00 | 0.00 | 34 | 1011.7 |
| 20260506202428 | 46 | 243 | 2.6 | 13.0 | 0.00 | 0.00 | 0.00 | 34 | 1011.7 |
| 20260506201745 | 47 | 252 | 6.1 | 13.0 | 0.00 | 0.00 | 0.00 | 34 | 1011.7 |
| 20260506201429 | 47 | 252 | 6.1 | 13.0 | 0.00 | 0.00 | 0.00 | 34 | 1011.7 |
| 20260506200428 | 46 | 263 | 3.5 | 15.6 | 0.00 | 0.00 | 0.00 | 38 | 1011.7 |
| 20260506195430 | 46 | 259 | 6.1 | 11.3 | 0.00 | 0.00 | 0.00 | 35 | 1011.7 |
| 20260506194428 | 46 | 243 | 2.6 | 7.8 | 0.00 | 0.00 | 0.00 | 36 | 1011.8 |
| 20260506193428 | 46 | 249 | 1.7 | 8.7 | 0.00 | 0.00 | 0.00 | 40 | 1011.8 |
| 20260506192428 | 46 | 269 | 3.5 | 7.8 | 0.00 | 0.00 | 0.00 | 37 | 1011.8 |
| 20260506191429 | 45 | 240 | 5.2 | 9.6 | 0.00 | 0.00 | 0.00 | 40 | 1011.8 |
| 20260506190428 | 45 | 269 | 2.6 | 11.3 | 0.00 | 0.00 | 0.00 | 43 | 1011.7 |
| 20260506185428 | 45 | 273 | 5.2 | 9.6 | 0.00 | 0.00 | 0.00 | 41 | 1011.7 |
| 20260506184428 | 44 | 256 | 2.6 | 8.7 | 0.00 | 0.00 | 0.00 | 42 | 1011.7 |
| 20260506183434 | 44 | 262 | 2.6 | 7.8 | 0.00 | 0.00 | 0.00 | 43 | 1011.7 |
| 20260506182428 | 43 | 0 | 0.0 | 3.5 | 0.00 | 0.00 | 0.00 | 44 | 1011.8 |
| 20260506181428 | 42 | 309 | 2.6 | 7.8 | 0.00 | 0.00 | 0.00 | 43 | 1011.8 |
| 20260506180428 | 41 | 272 | 0.9 | 7.0 | 0.00 | 0.00 | 0.00 | 45 | 1011.7 |
| 20260506175428 | 42 | 282 | 1.7 | 7.8 | 0.00 | 0.00 | 0.00 | 48 | 1011.7 |
| 20260506174428 | 41 | 276 | 1.7 | 8.7 | 0.00 | 0.00 | 0.00 | 47 | 1011.7 |
| 20260506173428 | 40 | 304 | 1.7 | 6.1 | 0.00 | 0.00 | 0.00 | 49 | 1011.6 |
| 20260506172428 | 40 | 251 | 3.5 | 7.8 | 0.00 | 0.00 | 0.00 | 49 | 1011.5 |
| 20260506171428 | 40 | 274 | 3.5 | 7.0 | 0.00 | 0.00 | 0.00 | 53 | 1011.4 |
| 20260506170428 | 40 | 265 | 2.6 | 7.0 | 0.00 | 0.00 | 0.00 | 50 | 1011.3 |
| 20260506165428 | 40 | 192 | 1.7 | 7.8 | 0.00 | 0.00 | 0.00 | 52 | 1011.3 |
| 20260506164428 | 39 | 258 | 0.9 | 6.1 | 0.00 | 0.00 | 0.00 | 54 | 1011.3 |
| 20260506163429 | 39 | 235 | 1.7 | 6.1 | 0.00 | 0.00 | 0.00 | 50 | 1011.2 |
| 20260506162428 | 39 | 228 | 0.9 | 7.0 | 0.00 | 0.00 | 0.00 | 53 | 1011.1 |
| 20260506161428 | 39 | 220 | 0.9 | 3.5 | 0.00 | 0.00 | 0.00 | 53 | 1011.0 |
| 20260506160428 | 39 | 0 | 0.0 | 6.1 | 0.00 | 0.00 | 0.00 | 51 | 1011.0 |
| 20260506155428 | 39 | 171 | 1.7 | 5.2 | 0.00 | 0.00 | 0.00 | 50 | 1010.9 |
| 20260506154429 | 39 | 148 | 0.9 | 6.1 | 0.00 | 0.00 | 0.00 | 48 | 1010.8 |
| 20260506153429 | 39 | 0 | 0.0 | 2.6 | 0.00 | 0.00 | 0.00 | 45 | 1010.7 |
| 20260506152429 | 39 | 0 | 0.0 | 1.7 | 0.00 | 0.00 | 0.00 | 46 | 1010.8 |
| 20260506151431 | 38 | 0 | 0.0 | 2.6 | 0.00 | 0.01 | 0.00 | 41 | 1010.7 |
| 20260506150431 | 38 | 0 | 0.0 | 4.3 | 0.00 | 0.04 | 0.00 | 43 | 1010.5 |
| 20260506145428 | 38 | 0 | 0.0 | 5.2 | 0.00 | 0.08 | 0.00 | 40 | 1010.6 |
| 20260506144428 | 37 | 58 | 0.9 | 6.1 | 0.00 | 0.11 | 0.00 | 49 | 1010.4 |
| 20260506143428 | 36 | 313 | 0.9 | 3.5 | 0.00 | 0.15 | 0.00 | 46 | 1010.4 |
| 20260506142428 | 35 | 0 | 0.0 | 7.8 | 0.00 | 0.22 | 0.00 | 54 | 1010.3 |
| 20260506141428 | 35 | 308 | 1.7 | 5.2 | 0.00 | 0.24 | 0.00 | 53 | 1010.2 |
| 20260506140428 | 35 | 322 | 2.6 | 7.0 | 0.00 | 0.29 | 0.00 | 53 | 1010.2 |
| 20260506135428 | 35 | 349 | 2.6 | 8.7 | 0.00 | 0.30 | 0.00 | 54 | 1010.1 |
| 20260506134428 | 34 | 354 | 3.5 | 8.7 | 0.00 | 0.32 | 0.00 | 54 | 1010.0 |
| 20260506133428 | 34 | 317 | 4.3 | 8.7 | 0.00 | 0.32 | 0.00 | 54 | 1009.9 |
| 20260506132428 | 34 | 319 | 4.3 | 7.8 | 0.00 | 0.32 | 0.00 | 54 | 1009.8 |
| 20260506131428 | 33 | 338 | 3.5 | 7.8 | 0.00 | 0.33 | 0.00 | 56 | 1009.8 |
| 20260506130428 | 33 | 326 | 5.2 | 9.6 | 0.00 | 0.34 | 0.00 | 56 | 1009.7 |
| 20260506125428 | 33 | 315 | 5.2 | 10.4 | 0.00 | 0.37 | 0.00 | 56 | 1009.6 |
| 20260506124428 | 32 | 311 | 7.8 | 12.2 | 0.00 | 0.38 | 0.00 | 56 | 1009.5 |
| 20260506123428 | 32 | 309 | 7.8 | 11.3 | 0.00 | 0.39 | 0.00 | 57 | 1009.5 |
| 20260506122428 | 33 | 306 | 8.7 | 13.9 | 0.00 | 0.40 | 0.00 | 56 | 1009.3 |
| 20260506121428 | 32 | 314 | 8.7 | 12.2 | 0.00 | 0.40 | 0.00 | 57 | 1009.3 |
| 20260506120428 | 32 | 309 | 7.8 | 13.0 | 0.00 | 0.41 | 0.00 | 58 | 1009.2 |
| 20260506115428 | 32 | 302 | 8.7 | 13.9 | 0.00 | 0.41 | 0.00 | 57 | 1009.2 |
| 20260506114758 | 32 | 309 | 7.8 | 12.2 | 0.00 | 0.41 | 0.00 | 58 | 1009.4 |
| 20260506114428 | 32 | 309 | 7.8 | 12.2 | 0.00 | 0.41 | 0.00 | 58 | 1009.4 |
| 20260506113639 | 32 | 304 | 7.8 | 13.0 | 0.00 | 0.41 | 0.00 | 57 | 1009.2 |
| 20260506113428 | 32 | 304 | 7.8 | 13.0 | 0.00 | 0.41 | 0.00 | 57 | 1009.2 |
| 20260506112428 | 32 | 300 | 7.8 | 14.8 | 0.00 | 0.41 | 0.00 | 58 | 1009.2 |
| 20260506111546 | 32 | 300 | 9.6 | 13.9 | 0.00 | 0.41 | 0.00 | 57 | 1009.2 |
| 20260506111428 | 32 | 300 | 9.6 | 13.9 | 0.00 | 0.41 | 0.00 | 57 | 1009.2 |
| 20260506110539 | 33 | 300 | 9.6 | 13.9 | 0.00 | 0.41 | 0.00 | 57 | 1009.1 |
| 20260506110428 | 33 | 300 | 9.6 | 13.9 | 0.00 | 0.41 | 0.00 | 57 | 1009.1 |
| 20260506105433 | 33 | 294 | 8.7 | 13.9 | 0.00 | 0.41 | 0.00 | 58 | 1009.1 |
| 20260506104429 | 33 | 302 | 9.6 | 13.9 | 0.00 | 0.42 | 0.00 | 57 | 1009.1 |
| 20260506103429 | 33 | 296 | 8.7 | 13.9 | 0.00 | 0.42 | 0.00 | 57 | 1009.0 |
| 20260506102428 | 33 | 302 | 9.6 | 15.6 | 0.00 | 0.42 | 0.00 | 57 | 1008.9 |
| 20260506101430 | 33 | 298 | 10.4 | 15.6 | 0.00 | 0.43 | 0.00 | 57 | 1008.9 |
| 20260506100428 | 33 | 293 | 9.6 | 18.2 | 0.00 | 0.43 | 0.00 | 57 | 1008.8 |
| 20260506095630 | 33 | 287 | 13.0 | 21.7 | 0.00 | 0.43 | 0.00 | 57 | 1008.7 |
| 20260506095428 | 33 | 287 | 13.0 | 21.7 | 0.00 | 0.43 | 0.00 | 57 | 1008.7 |
| 20260506094428 | 33 | 291 | 11.3 | 21.7 | 0.00 | 0.43 | 0.00 | 57 | 1008.7 |
| 20260506093430 | 33 | 279 | 11.3 | 20.0 | 0.00 | 0.43 | 0.00 | 58 | 1008.6 |
| 20260506092610 | 33 | 286 | 13.9 | 20.0 | 0.00 | 0.44 | 0.00 | 59 | 1008.6 |
| 20260506092428 | 33 | 286 | 13.9 | 20.0 | 0.00 | 0.44 | 0.00 | 59 | 1008.6 |
| 20260506091804 | 33 | 284 | 12.2 | 20.0 | 0.00 | 0.44 | 0.00 | 59 | 1008.7 |
| 20260506091428 | 33 | 284 | 12.2 | 20.0 | 0.00 | 0.44 | 0.00 | 59 | 1008.7 |
| 20260506090720 | 33 | 287 | 12.2 | 19.1 | 0.00 | 0.45 | 0.00 | 59 | 1008.7 |
| 20260506090428 | 33 | 287 | 12.2 | 19.1 | 0.00 | 0.45 | 0.00 | 59 | 1008.7 |
| 20260506085428 | 33 | 290 | 10.4 | 20.0 | 0.00 | 0.45 | 0.00 | 60 | 1008.6 |
| 20260506084709 | 33 | 287 | 7.8 | 14.8 | 0.00 | 0.45 | 0.00 | 60 | 1008.7 |
| 20260506084428 | 33 | 287 | 7.8 | 14.8 | 0.00 | 0.45 | 0.00 | 60 | 1008.7 |
| 20260506083428 | 33 | 297 | 9.6 | 17.4 | 0.00 | 0.45 | 0.00 | 59 | 1008.8 |
| 20260506082428 | 33 | 290 | 9.6 | 14.8 | 0.00 | 0.46 | 0.00 | 58 | 1008.8 |
| 20260506082031 | 33 | 291 | 9.6 | 17.4 | 0.00 | 0.46 | 0.00 | 56 | 1008.9 |
| 20260506081428 | 33 | 291 | 9.6 | 17.4 | 0.00 | 0.46 | 0.00 | 56 | 1008.9 |
| 20260506080428 | 33 | 287 | 7.8 | 13.9 | 0.00 | 0.46 | 0.46 | 56 | 1008.9 |